Date String (YYYY-MM-DD hh:mm:ss) UTC,Instrument flags,absolute air pressure of the measurement (hPa),sample flow rate (lpm),inlet stack bypass flow (lpm),air temperature of the measurement (°C),ambient temperature measured by the external sensor (°C),aerosol sample conditioner tube jacket temperature (°C),OPC LED temperature (°C),internal box temperature (°C),relative humidity of the measurement (%),span deviation,mass concentration of particles derived from Lorenz-Mie calculation of OPC scattering (μg/m³),mass concentration of particles derived from Lorenz-Mie calculation of OPC scattering (μg/m³),mass concentration of particles derived from Lorenz-Mie calculation of OPC scattering (μg/m³)
DateTimeUTC,F1_M11,P_M11,Q1_M11,Q2_M11,T1_M11,T2_M11,T3_M11,T4_M11,T5_M11,U1_M11,ZSPAN_M11,X0_M11,X2_M11,X1_M11
2023-10-07 15:00:00,SystemResetWarning,0838.2,5.00,000.00,025.7,024.5,000.0,034.0,027.5,19.8,0000.0,0011.13,0005.58,0005.08
2023-10-07 15:01:00,SystemResetWarning,0838.2,5.00,000.00,025.7,024.5,000.0,034.0,027.5,20.1,0000.0,0011.23,0005.52,0005.07
2023-10-07 15:02:00,SystemResetWarning,0838.2,5.00,000.00,025.7,024.6,000.0,034.1,027.5,20.1,0000.0,0010.72,0005.46,0005.05
2023-10-07 15:03:00,SystemResetWarning,0838.2,4.99,000.00,025.8,024.6,000.0,034.1,027.5,19.9,0000.0,0010.79,0005.44,0005.02
2023-10-07 15:04:00,SystemResetWarning,0838.2,4.99,000.00,025.8,024.6,000.0,034.1,027.5,19.8,0000.0,0011.04,0005.43,0004.99
2023-10-07 15:05:00,SystemResetWarning,0838.2,5.00,000.00,025.8,024.6,000.0,034.1,027.5,19.9,0000.0,0011.40,0005.41,0004.96
2023-10-07 15:06:00,SystemResetWarning,0838.2,4.99,000.00,025.8,024.6,000.0,034.1,027.5,19.9,0000.0,0011.22,0005.39,0004.94
2023-10-07 15:07:00,SystemResetWarning,0838.1,5.00,000.00,025.8,024.7,000.0,034.1,027.6,20.2,0000.0,0011.11,0005.35,0004.89
2023-10-07 15:08:00,SystemResetWarning,0838.1,5.01,000.00,025.8,024.7,000.0,034.2,027.6,20.4,0000.0,0011.09,0005.33,0004.86
2023-10-07 15:09:00,SystemResetWarning,0838.0,5.00,000.00,025.9,024.7,000.0,034.2,027.6,20.5,0000.0,0010.47,0005.30,0004.84
2023-10-07 15:10:00,SystemResetWarning,0838.1,5.00,000.00,025.9,024.7,000.0,034.2,027.6,20.3,0000.0,0010.09,0005.30,0004.83
2023-10-07 15:11:00,SystemResetWarning,0838.0,5.00,000.00,025.9,024.7,000.0,034.2,027.6,20.1,0000.0,0010.05,0005.30,0004.81
2023-10-07 15:12:00,SystemResetWarning,0837.9,5.00,000.00,025.9,024.8,000.0,034.2,027.7,20.2,0000.0,0010.32,0005.32,0004.80
2023-10-07 15:13:00,SystemResetWarning,0837.9,5.00,000.00,025.9,024.8,000.0,034.2,027.7,20.3,0000.0,0010.40,0005.35,0004.80
2023-10-07 15:14:00,SystemResetWarning,0838.0,5.00,000.00,026.0,024.8,000.0,034.3,027.7,21.2,0000.0,0010.60,0005.38,0004.81
2023-10-07 15:15:00,SystemResetWarning,0837.9,5.00,000.00,026.0,024.8,000.0,034.3,027.7,21.3,0000.0,0010.52,0005.37,0004.82
2023-10-07 15:16:00,SystemResetWarning,0837.9,5.00,000.00,026.0,024.8,000.0,034.3,027.7,20.6,0000.0,0010.01,0005.38,0004.83
2023-10-07 15:17:00,SystemResetWarning,0837.9,4.99,000.00,026.0,024.8,000.0,034.3,027.7,20.5,0000.0,0010.23,0005.38,0004.83
2023-10-07 15:18:00,SystemResetWarning,0837.9,4.98,000.00,026.0,024.9,000.0,034.3,027.8,21.0,0000.0,0010.08,0005.38,0004.84
2023-10-07 15:19:00,SystemResetWarning,0838.0,5.00,000.00,026.0,024.9,000.0,034.4,027.8,21.1,0000.0,0010.07,0005.40,0004.87
2023-10-07 15:20:00,SystemResetWarning,0837.9,5.01,000.00,026.1,024.9,000.0,034.4,027.8,21.1,0000.0,0010.06,0005.41,0004.88
2023-10-07 15:21:00,SystemResetWarning,0838.0,5.01,000.00,026.1,024.9,000.0,034.4,027.8,21.0,0000.0,0010.03,0005.42,0004.88
2023-10-07 15:22:00,SystemResetWarning,0838.0,5.00,000.00,026.1,024.9,000.0,034.4,027.8,20.8,0000.0,0010.04,0005.42,0004.88
2023-10-07 15:23:00,SystemResetWarning,0838.0,5.00,000.00,026.1,025.0,000.0,034.4,027.9,20.8,0000.0,0009.45,0005.39,0004.90
2023-10-07 15:24:00,SystemResetWarning,0838.0,5.00,000.00,026.1,025.0,000.0,034.4,027.9,20.8,0000.0,0009.11,0005.34,0004.88
2023-10-07 15:25:00,SystemResetWarning,0838.0,5.00,000.00,026.1,025.0,000.0,034.5,027.9,20.8,0000.0,0009.30,0005.31,0004.87
2023-10-07 15:26:00,SystemResetWarning,0838.0,5.00,000.00,026.2,025.0,000.0,034.5,027.9,20.8,0000.0,0009.33,0005.30,0004.86
2023-10-07 15:27:00,SystemResetWarning,0837.9,5.00,000.00,026.2,025.0,000.0,034.5,027.9,20.7,0000.0,0009.27,0005.26,0004.84
2023-10-07 15:28:00,SystemResetWarning,0838.0,5.00,000.00,026.2,025.0,000.0,034.5,027.9,20.6,0000.0,0008.92,0005.23,0004.82
2023-10-07 15:29:00,SystemResetWarning,0838.0,5.00,000.00,026.2,025.0,000.0,034.5,028.0,20.5,0000.0,0008.81,0005.24,0004.83
2023-10-07 15:30:00,SystemResetWarning,0838.0,5.00,000.00,026.2,025.1,000.0,034.5,028.0,20.5,0000.0,0009.07,0005.24,0004.80
2023-10-07 15:31:00,SystemResetWarning,0838.0,5.00,000.00,026.2,025.1,000.0,034.6,028.0,20.7,0000.0,0009.21,0005.23,0004.78
2023-10-07 15:32:00,SystemResetWarning,0838.0,5.00,000.00,026.3,025.1,000.0,034.6,028.0,20.8,0000.0,0009.63,0005.21,0004.75
2023-10-07 15:33:00,SystemResetWarning,0838.0,5.00,000.00,026.3,025.1,000.0,034.6,028.0,20.9,0000.0,0009.72,0005.21,0004.72
2023-10-07 15:34:00,SystemResetWarning,0837.9,5.00,000.00,026.3,025.1,000.0,034.6,028.0,21.0,0000.0,0009.70,0005.20,0004.70
2023-10-07 15:35:00,SystemResetWarning,0838.0,5.00,000.00,026.3,025.2,000.0,034.6,028.1,20.7,0000.0,0009.78,0005.22,0004.69
2023-10-07 15:36:00,SystemResetWarning,0837.9,5.00,000.00,026.3,025.2,000.0,034.6,028.1,20.7,0000.0,0009.30,0005.19,0004.67
2023-10-07 15:37:00,SystemResetWarning,0837.9,5.00,000.00,026.4,025.2,000.0,034.7,028.1,20.7,0000.0,0009.15,0005.16,0004.65
2023-10-07 15:38:00,SystemResetWarning,0837.8,5.00,000.00,026.4,025.2,000.0,034.7,028.1,20.6,0000.0,0009.21,0005.15,0004.64
2023-10-07 15:39:00,SystemResetWarning,0837.8,5.00,000.00,026.4,025.3,000.0,034.7,028.1,20.5,0000.0,0010.24,0005.13,0004.63
2023-10-07 15:40:00,SystemResetWarning,0837.8,4.99,000.00,026.4,025.3,000.0,034.7,028.1,20.7,0000.0,0011.37,0005.12,0004.61
2023-10-07 15:41:00,SystemResetWarning,0837.8,5.00,000.00,026.4,025.3,000.0,034.7,028.1,20.7,0000.0,0011.36,0005.10,0004.60
2023-10-07 15:42:00,SystemResetWarning,0837.8,4.99,000.00,026.4,025.3,000.0,034.8,028.2,20.6,0000.0,0011.31,0005.06,0004.59
2023-10-07 15:43:00,SystemResetWarning,0837.8,5.00,000.00,026.5,025.3,000.0,034.8,028.2,20.5,0000.0,0010.95,0005.05,0004.58
2023-10-07 15:44:00,SystemResetWarning,0837.8,5.00,000.00,026.5,025.4,000.0,034.8,028.2,20.5,0000.0,0010.80,0005.01,0004.58
2023-10-07 15:45:00,SystemResetWarning,0837.8,5.00,000.00,026.5,025.4,000.0,034.8,028.2,20.3,0000.0,0010.80,0005.02,0004.56
2023-10-07 15:46:00,SystemResetWarning,0837.8,5.00,000.00,026.5,025.4,000.0,034.8,028.2,20.5,0000.0,0010.77,0005.00,0004.55
2023-10-07 15:47:00,SystemResetWarning,0837.8,5.00,000.00,026.5,025.4,000.0,034.8,028.3,20.3,0000.0,0010.78,0005.00,0004.53
2023-10-07 15:48:00,SystemResetWarning,0837.8,5.01,000.00,026.6,025.4,000.0,034.9,028.3,20.3,0000.0,0010.69,0004.97,0004.51
2023-10-07 15:49:00,SystemResetWarning,0837.8,4.99,000.00,026.6,025.4,000.0,034.9,028.3,20.4,0000.0,0010.69,0004.97,0004.52
2023-10-07 15:50:00,SystemResetWarning,0837.8,4.99,000.00,026.6,025.5,000.0,034.9,028.3,20.2,0000.0,0010.18,0004.99,0004.54
2023-10-07 15:51:00,SystemResetWarning,0837.8,5.00,000.00,026.6,025.5,000.0,034.9,028.3,20.2,0000.0,0009.07,0004.98,0004.54
2023-10-07 15:52:00,SystemResetWarning,0837.8,5.01,000.00,026.6,025.5,000.0,034.9,028.4,20.2,0000.0,0008.75,0004.95,0004.54
2023-10-07 15:53:00,SystemResetWarning,0837.8,5.01,000.00,026.7,025.5,000.0,034.9,028.4,20.3,0000.0,0008.73,0004.98,0004.56
2023-10-07 15:54:00,SystemResetWarning,0837.8,5.01,000.00,026.7,025.5,000.0,035.0,028.4,20.1,0000.0,0008.78,0005.01,0004.60
2023-10-07 15:55:00,SystemResetWarning,0837.8,5.00,000.00,026.7,025.6,000.0,035.0,028.4,20.2,0000.0,0008.82,0005.04,0004.62
2023-10-07 15:56:00,SystemResetWarning,0837.8,5.00,000.00,026.7,025.6,000.0,035.0,028.5,20.1,0000.0,0008.94,0005.04,0004.64
2023-10-07 15:57:00,SystemResetWarning,0837.8,5.00,000.00,026.7,025.6,000.0,035.0,028.5,19.9,0000.0,0008.88,0005.02,0004.66
2023-10-07 15:58:00,SystemResetWarning,0837.8,4.99,000.00,026.7,025.6,000.0,035.0,028.5,19.9,0000.0,0008.90,0005.04,0004.69
2023-10-07 15:59:00,SystemResetWarning,0837.8,5.00,000.00,026.8,025.6,000.0,035.1,028.5,20.0,0000.0,0008.92,0005.07,0004.72
